Location: Laterina
(43.5167°N, 11.7167°E)
Time: 16:43:14
(UTC+00:00)

Cosmos 1975 Rocket - Pass Details

Date: 24 September 2020
Orbit: 603 x 634 km, 82.5° (Epoch: 25 October)

Event Time Altitude Azimuth Distance (km) Brightness Sun altitude
Rises 17:34:33 0° 350° (N) 2,870 6.7 -6.0°
Reaches altitude 10° 17:36:47 10° 350° (N) 1,960 5.8 -6.4°
Maximum altitude 17:41:06 82° 265° (W) 614 3.1 -7.1°
Drops below altitude 10° 17:45:24 10° 176° (S) 1,943 5.5 -7.9°
Sets 17:47:36 0° 176° (S) 2,843 6.3 -8.3°
